Station Historical Data
Daily Summary for June 24, 2012 Units:  English    Metric   Both
« Previous Day
Next Day »
Daily Weekly Monthly Yearly Custom
  High: Low: Average:
Temperature: 96.7 °F 69.0 °F 83.1 °F
Dew Point: 68.9 °F 53.8 °F 59.6 °F
Humidity: 68% 25% 48%
Wind Speed: 9.0mph 0.0mph 2.5mph
Wind Gust: 11.0mph - -
Wind- - SE
Pressure: 29.91 in 29.78 in -
Precipitation: 0.00 in    
Historical Graphs
 
 
Tabular Data for June 24, 2012
Time Temperature Dew Point Pressure Wind Wind Speed Wind Gust Humidity Rainfall Rate (Hourly) Conditions
00:00 76.9 °F 58.0 °F 29.89 in NNE 2.0 mph 4.0 mph 52% 0.00 in
00:05 77.0 °F 58.0 °F 29.89 in NNE 2.0 mph 3.0 mph 52% 0.00 in
00:10 76.7 °F 58.3 °F 29.89 in NNE 1.0 mph 2.0 mph 53% 0.00 in
00:15 75.9 °F 58.6 °F 29.89 in North 1.0 mph 2.0 mph 55% 0.00 in
00:20 75.2 °F 58.4 °F 29.89 in North 2.0 mph 2.0 mph 56% 0.00 in
00:25 74.9 °F 58.7 °F 29.89 in North 1.0 mph 2.0 mph 57% 0.00 in
00:30 74.6 °F 58.9 °F 29.89 in NNW 2.0 mph 3.0 mph 58% 0.00 in
00:35 74.2 °F 58.5 °F 29.89 in North 3.0 mph 3.0 mph 58% 0.00 in
00:40 74.4 °F 58.7 °F 29.89 in North 2.0 mph 4.0 mph 58% 0.00 in
00:45 74.5 °F 58.8 °F 29.89 in North 2.0 mph 3.0 mph 58% 0.00 in
00:50 74.7 °F 59.0 °F 29.90 in North 3.0 mph 3.0 mph 58% 0.00 in
00:55 74.7 °F 59.0 °F 29.90 in North 2.0 mph 3.0 mph 58% 0.00 in
01:00 74.6 °F 58.9 °F 29.90 in North 2.0 mph 3.0 mph 58% 0.00 in
01:05 74.5 °F 59.2 °F 29.90 in NNE 1.0 mph 2.0 mph 59% 0.00 in
01:10 74.2 °F 59.0 °F 29.90 in North 2.0 mph 3.0 mph 59% 0.00 in
01:15 74.1 °F 59.3 °F 29.90 in North 2.0 mph 3.0 mph 60% 0.00 in
01:20 73.9 °F 59.2 °F 29.90 in North 1.0 mph 3.0 mph 60% 0.00 in
01:25 74.0 °F 59.2 °F 29.90 in ENE 2.0 mph 3.0 mph 60% 0.00 in
01:30 74.2 °F 59.0 °F 29.90 in NNE 1.0 mph 4.0 mph 59% 0.00 in
01:35 74.3 °F 59.1 °F 29.90 in NE 1.0 mph 2.0 mph 59% 0.00 in
01:40 74.2 °F 59.0 °F 29.89 in NNE 1.0 mph 3.0 mph 59% 0.00 in
01:45 74.0 °F 59.2 °F 29.90 in NNE 1.0 mph 2.0 mph 60% 0.00 in
01:50 74.0 °F 58.8 °F 29.89 in NNE 2.0 mph 4.0 mph 59% 0.00 in
01:55 74.2 °F 59.0 °F 29.90 in NE 1.0 mph 3.0 mph 59% 0.00 in
02:00 74.2 °F 59.0 °F 29.90 in NE 2.0 mph 3.0 mph 59% 0.00 in
02:05 74.0 °F 58.8 °F 29.89 in NNE 3.0 mph 3.0 mph 59% 0.00 in
02:10 74.0 °F 58.8 °F 29.90 in NE 2.0 mph 3.0 mph 59% 0.00 in
02:16 74.0 °F 58.8 °F 29.89 in NNE 1.0 mph 3.0 mph 59% 0.00 in
02:21 73.9 °F 58.7 °F 29.89 in NE 2.0 mph 2.0 mph 59% 0.00 in
02:26 73.7 °F 58.5 °F 29.89 in NNE 2.0 mph 3.0 mph 59% 0.00 in
02:31 73.7 °F 58.5 °F 29.89 in NNE 3.0 mph 3.0 mph 59% 0.00 in
02:36 73.7 °F 58.5 °F 29.89 in NNE 2.0 mph 2.0 mph 59% 0.00 in
02:41 73.6 °F 58.4 °F 29.89 in NNE 2.0 mph 3.0 mph 59% 0.00 in
02:46 73.5 °F 58.3 °F 29.88 in North 2.0 mph 3.0 mph 59% 0.00 in
02:51 73.5 °F 58.3 °F 29.88 in NE 2.0 mph 3.0 mph 59% 0.00 in
02:56 73.5 °F 58.3 °F 29.89 in NNE 3.0 mph 3.0 mph 59% 0.00 in
03:01 73.5 °F 58.3 °F 29.88 in NE 2.0 mph 4.0 mph 59% 0.00 in
03:06 73.5 °F 58.3 °F 29.88 in NNE 1.0 mph 4.0 mph 59% 0.00 in
03:11 73.4 °F 58.2 °F 29.89 in North 3.0 mph 4.0 mph 59% 0.00 in
03:16 73.3 °F 58.1 °F 29.88 in NE 2.0 mph 2.0 mph 59% 0.00 in
03:21 73.2 °F 58.0 °F 29.88 in NNE 3.0 mph 3.0 mph 59% 0.00 in
03:26 73.2 °F 58.0 °F 29.88 in NE 1.0 mph 3.0 mph 59% 0.00 in
03:31 73.1 °F 57.9 °F 29.88 in NE 1.0 mph 4.0 mph 59% 0.00 in
03:36 73.1 °F 57.9 °F 29.89 in NNE 2.0 mph 3.0 mph 59% 0.00 in
03:41 73.0 °F 57.8 °F 29.89 in NNE 1.0 mph 3.0 mph 59% 0.00 in
03:46 73.0 °F 57.8 °F 29.88 in NNE 1.0 mph 4.0 mph 59% 0.00 in
03:51 73.0 °F 58.3 °F 29.88 in NNE 1.0 mph 3.0 mph 60% 0.00 in
03:56 72.8 °F 58.1 °F 29.88 in North 3.0 mph 3.0 mph 60% 0.00 in
04:01 72.6 °F 57.9 °F 29.88 in North 2.0 mph 3.0 mph 60% 0.00 in
04:06 72.3 °F 58.1 °F 29.88 in North 1.0 mph 3.0 mph 61% 0.00 in
04:11 72.0 °F 57.8 °F 29.88 in NNE 3.0 mph 4.0 mph 61% 0.00 in
04:16 71.9 °F 58.2 °F 29.88 in NNW 2.0 mph 3.0 mph 62% 0.00 in
04:21 71.8 °F 58.1 °F 29.88 in NE 2.0 mph 3.0 mph 62% 0.00 in
04:26 71.8 °F 58.1 °F 29.88 in NE 2.0 mph 3.0 mph 62% 0.00 in
04:31 71.9 °F 57.7 °F 29.88 in NE 3.0 mph 3.0 mph 61% 0.00 in
04:36 72.2 °F 58.0 °F 29.88 in NE 3.0 mph 3.0 mph 61% 0.00 in
04:41 72.0 °F 57.8 °F 29.88 in North 1.0 mph 3.0 mph 61% 0.00 in
04:46 71.8 °F 58.1 °F 29.88 in NNE 1.0 mph 3.0 mph 62% 0.00 in
04:51 71.7 °F 58.0 °F 29.88 in NE 1.0 mph 2.0 mph 62% 0.00 in
04:56 71.5 °F 57.8 °F 29.88 in NNE 2.0 mph 2.0 mph 62% 0.00 in
05:01 71.4 °F 58.2 °F 29.87 in NNE 1.0 mph 3.0 mph 63% 0.00 in
05:06 71.2 °F 58.0 °F 29.87 in NE 1.0 mph 3.0 mph 63% 0.00 in
05:11 71.2 °F 58.0 °F 29.87 in NE 2.0 mph 3.0 mph 63% 0.00 in
05:16 71.3 °F 58.1 °F 29.87 in North 2.0 mph 3.0 mph 63% 0.00 in
05:21 71.2 °F 58.0 °F 29.87 in NNE 2.0 mph 3.0 mph 63% 0.00 in
05:26 71.2 °F 58.0 °F 29.87 in NNE 1.0 mph 3.0 mph 63% 0.00 in
05:31 71.2 °F 58.0 °F 29.87 in NE 1.0 mph 3.0 mph 63% 0.00 in
05:36 71.2 °F 58.0 °F 29.87 in NNE 3.0 mph 3.0 mph 63% 0.00 in
05:41 71.1 °F 57.9 °F 29.87 in NNE 2.0 mph 3.0 mph 63% 0.00 in
05:46 70.9 °F 57.7 °F 29.87 in Calm   2.0 mph 63% 0.00 in
05:51 70.6 °F 57.8 °F 29.87 in NNE 1.0 mph 2.0 mph 64% 0.00 in
05:57 70.3 °F 58.0 °F 29.87 in NNE 2.0 mph 4.0 mph 65% 0.00 in
06:02 70.1 °F 57.8 °F 29.87 in NE 2.0 mph 3.0 mph 65% 0.00 in
06:07 70.1 °F 57.8 °F 29.87 in NE 1.0 mph 2.0 mph 65% 0.00 in
06:12 70.1 °F 57.8 °F 29.87 in NE 1.0 mph 2.0 mph 65% 0.00 in
06:17 70.1 °F 57.8 °F 29.87 in North 2.0 mph 2.0 mph 65% 0.00 in
06:22 69.7 °F 57.8 °F 29.87 in Calm   2.0 mph 66% 0.00 in
06:27 69.2 °F 57.8 °F 29.87 in Calm   2.0 mph 67% 0.00 in
06:32 69.0 °F 57.6 °F 29.87 in NNE 1.0 mph 3.0 mph 67% 0.00 in
06:37 69.2 °F 57.8 °F 29.87 in NW 1.0 mph 3.0 mph 67% 0.00 in
06:42 69.2 °F 57.8 °F 29.87 in Calm   1.0 mph 67% 0.00 in
06:47 69.0 °F 57.6 °F 29.87 in NNE 2.0 mph 3.0 mph 67% 0.00 in
06:52 69.2 °F 57.8 °F 29.88 in NNE 1.0 mph 3.0 mph 67% 0.00 in
06:57 69.3 °F 57.9 °F 29.88 in NNE 1.0 mph 3.0 mph 67% 0.00 in
07:02 69.5 °F 58.1 °F 29.88 in NNE 1.0 mph 1.0 mph 67% 0.00 in
07:07 69.8 °F 58.4 °F 29.88 in North 1.0 mph 2.0 mph 67% 0.00 in
07:12 69.6 °F 58.6 °F 29.88 in Calm   2.0 mph 68% 0.00 in
07:17 69.8 °F 58.8 °F 29.88 in NW 1.0 mph 1.0 mph 68% 0.00 in
07:22 70.4 °F 58.9 °F 29.88 in NNW 1.0 mph 2.0 mph 67% 0.00 in
07:27 70.8 °F 58.9 °F 29.88 in ENE 1.0 mph 1.0 mph 66% 0.00 in
07:32 71.4 °F 59.5 °F 29.88 in Calm   2.0 mph 66% 0.00 in
07:37 72.0 °F 59.6 °F 29.88 in NNW 1.0 mph 2.0 mph 65% 0.00 in
07:42 72.4 °F 60.0 °F 29.88 in NE 1.0 mph 1.0 mph 65% 0.00 in
07:47 72.8 °F 59.9 °F 29.88 in NNE 3.0 mph 3.0 mph 64% 0.00 in
07:52 73.1 °F 60.7 °F 29.88 in Calm   3.0 mph 65% 0.00 in
07:57 73.6 °F 60.7 °F 29.89 in NNE 1.0 mph 3.0 mph 64% 0.00 in
08:02 73.8 °F 60.9 °F 29.89 in NNE 2.0 mph 3.0 mph 64% 0.00 in
08:07 73.9 °F 61.0 °F 29.89 in North 2.0 mph 4.0 mph 64% 0.00 in
08:12 74.0 °F 61.1 °F 29.89 in NE 4.0 mph 5.0 mph 64% 0.00 in
08:17 74.0 °F 61.1 °F 29.89 in NE 2.0 mph 6.0 mph 64% 0.00 in
08:22 74.4 °F 61.4 °F 29.89 in NE 2.0 mph 4.0 mph 64% 0.00 in
08:27 74.8 °F 61.8 °F 29.90 in North 2.0 mph 4.0 mph 64% 0.00 in
08:32 75.1 °F 62.1 °F 29.89 in NE 3.0 mph 5.0 mph 64% 0.00 in
08:37 75.5 °F 62.5 °F 29.90 in NE 3.0 mph 5.0 mph 64% 0.00 in
08:42 75.9 °F 63.3 °F 29.90 in East 4.0 mph 4.0 mph 65% 0.00 in
08:47 76.3 °F 62.3 °F 29.90 in East 6.0 mph 6.0 mph 62% 0.00 in
08:52 76.5 °F 62.5 °F 29.90 in ESE 5.0 mph 6.0 mph 62% 0.00 in
08:57 76.6 °F 63.1 °F 29.91 in ESE 7.0 mph 7.0 mph 63% 0.00 in
09:02 76.7 °F 63.6 °F 29.90 in SE 3.0 mph 5.0 mph 64% 0.00 in
09:07 76.9 °F 62.4 °F 29.90 in ESE 1.0 mph 5.0 mph 61% 0.00 in
09:12 77.2 °F 62.7 °F 29.90 in ENE 3.0 mph 4.0 mph 61% 0.00 in
09:17 77.6 °F 63.1 °F 29.90 in NE 4.0 mph 4.0 mph 61% 0.00 in
09:22 77.9 °F 63.4 °F 29.90 in NE 2.0 mph 6.0 mph 61% 0.00 in
09:27 78.3 °F 63.3 °F 29.90 in ENE 3.0 mph 5.0 mph 60% 0.00 in
09:32 78.8 °F 63.8 °F 29.90 in NE 5.0 mph 5.0 mph 60% 0.00 in
09:37 79.4 °F 64.3 °F 29.90 in ENE 1.0 mph 3.0 mph 60% 0.00 in
09:42 79.8 °F 64.7 °F 29.90 in NNE 4.0 mph 4.0 mph 60% 0.00 in
09:47 80.1 °F 64.0 °F 29.90 in Calm   3.0 mph 58% 0.00 in
09:52 80.5 °F 64.4 °F 29.90 in NE 2.0 mph 5.0 mph 58% 0.00 in
09:57 81.0 °F 64.8 °F 29.91 in NE 2.0 mph 5.0 mph 58% 0.00 in
10:02 81.1 °F 65.4 °F 29.91 in NE 4.0 mph 4.0 mph 59% 0.00 in
10:08 81.5 °F 65.3 °F 29.91 in East 2.0 mph 4.0 mph 58% 0.00 in
10:13 82.1 °F 64.9 °F 29.90 in East 1.0 mph 5.0 mph 56% 0.00 in
10:18 82.8 °F 65.5 °F 29.90 in ENE 2.0 mph 4.0 mph 56% 0.00 in
10:23 83.1 °F 67.3 °F 29.91 in NE 1.0 mph 5.0 mph 59% 0.00 in
10:28 83.2 °F 64.8 °F 29.91 in ENE 1.0 mph 4.0 mph 54% 0.00 in
10:33 84.1 °F 67.7 °F 29.91 in NE 3.0 mph 4.0 mph 58% 0.00 in
10:38 84.7 °F 67.3 °F 29.91 in NNE 2.0 mph 4.0 mph 56% 0.00 in
10:43 84.9 °F 68.5 °F 29.91 in North 2.0 mph 3.0 mph 58% 0.00 in
10:48 85.2 °F 66.7 °F 29.90 in SE 3.0 mph 3.0 mph 54% 0.00 in
10:53 85.6 °F 68.1 °F 29.90 in SE 3.0 mph 4.0 mph 56% 0.00 in
10:58 85.9 °F 66.8 °F 29.90 in North 2.0 mph 3.0 mph 53% 0.00 in
11:03 86.1 °F 66.4 °F 29.90 in SE 1.0 mph 5.0 mph 52% 0.00 in
11:08 86.5 °F 66.8 °F 29.90 in East 1.0 mph 3.0 mph 52% 0.00 in
11:13 87.0 °F 67.3 °F 29.90 in South 1.0 mph 3.0 mph 52% 0.00 in
11:18 87.3 °F 67.5 °F 29.90 in Calm   3.0 mph 52% 0.00 in
11:23 87.6 °F 68.9 °F 29.90 in SE 2.0 mph 4.0 mph 54% 0.00 in
11:28 87.9 °F 66.9 °F 29.90 in Calm   3.0 mph 50% 0.00 in
11:33 88.3 °F 67.3 °F 29.90 in ESE 2.0 mph 4.0 mph 50% 0.00 in
11:38 88.6 °F 67.6 °F 29.90 in SE 4.0 mph 6.0 mph 50% 0.00 in
11:43 88.7 °F 68.3 °F 29.90 in ESE 2.0 mph 5.0 mph 51% 0.00 in
11:48 89.0 °F 66.8 °F 29.90 in ESE 4.0 mph 8.0 mph 48% 0.00 in
11:53 88.9 °F 67.3 °F 29.89 in NE 1.0 mph 6.0 mph 49% 0.00 in
11:58 89.0 °F 66.2 °F 29.89 in NE 1.0 mph 5.0 mph 47% 0.00 in
12:03 89.5 °F 66.6 °F 29.89 in East 4.0 mph 6.0 mph 47% 0.00 in
12:08 89.5 °F 67.2 °F 29.89 in NNE 5.0 mph 6.0 mph 48% 0.00 in
12:13 89.4 °F 67.1 °F 29.89 in NW 3.0 mph 5.0 mph 48% 0.00 in
12:18 89.9 °F 63.1 °F 29.89 in North 1.0 mph 7.0 mph 41% 0.00 in
12:23 89.9 °F 63.1 °F 29.89 in NE 2.0 mph 6.0 mph 41% 0.00 in
12:28 90.2 °F 63.3 °F 29.89 in NNW 4.0 mph 7.0 mph 41% 0.00 in
12:33 90.6 °F 63.7 °F 29.89 in SW 1.0 mph 8.0 mph 41% 0.00 in
12:38 90.9 °F 61.8 °F 29.88 in NE 4.0 mph 6.0 mph 38% 0.00 in
12:43 91.1 °F 62.0 °F 29.88 in NE 4.0 mph 7.0 mph 38% 0.00 in
12:48 90.9 °F 61.8 °F 29.88 in NE 2.0 mph 5.0 mph 38% 0.00 in
12:53 91.5 °F 61.6 °F 29.88 in NNW 3.0 mph 7.0 mph 37% 0.00 in
12:58 91.2 °F 56.4 °F 29.89 in NNE 4.0 mph 8.0 mph 31% 0.00 in
13:03 91.3 °F 60.6 °F 29.88 in NE 3.0 mph 6.0 mph 36% 0.00 in
13:08 91.6 °F 59.3 °F 29.88 in NNE 4.0 mph 7.0 mph 34% 0.00 in
13:13 91.8 °F 57.8 °F 29.88 in NE 4.0 mph 6.0 mph 32% 0.00 in
13:18 91.6 °F 60.1 °F 29.88 in NE 4.0 mph 7.0 mph 35% 0.00 in
13:23 91.5 °F 58.4 °F 29.88 in ESE 5.0 mph 5.0 mph 33% 0.00 in
13:29 92.2 °F 61.4 °F 29.88 in NE 3.0 mph 7.0 mph 36% 0.00 in
13:34 92.0 °F 60.5 °F 29.88 in NNW 3.0 mph 7.0 mph 35% 0.00 in
13:39 92.2 °F 61.4 °F 29.88 in WNW 3.0 mph 5.0 mph 36% 0.00 in
13:44 92.3 °F 62.3 °F 29.87 in East 5.0 mph 5.0 mph 37% 0.00 in
13:49 92.5 °F 60.9 °F 29.87 in NW 2.0 mph 5.0 mph 35% 0.00 in
13:54 93.0 °F 59.7 °F 29.87 in ENE 5.0 mph 7.0 mph 33% 0.00 in
13:59 92.9 °F 56.0 °F 29.87 in North 4.0 mph 7.0 mph 29% 0.00 in
14:04 93.0 °F 56.1 °F 29.87 in ENE 5.0 mph 6.0 mph 29% 0.00 in
14:09 93.2 °F 58.1 °F 29.87 in NW 4.0 mph 5.0 mph 31% 0.00 in
14:14 93.4 °F 57.4 °F 29.86 in North 4.0 mph 6.0 mph 30% 0.00 in
14:19 93.6 °F 57.5 °F 29.86 in NE 3.0 mph 6.0 mph 30% 0.00 in
14:24 93.4 °F 56.4 °F 29.86 in NNE 5.0 mph 7.0 mph 29% 0.00 in
14:29 93.8 °F 56.8 °F 29.86 in NNE 3.0 mph 5.0 mph 29% 0.00 in
14:34 94.2 °F 59.0 °F 29.85 in NE 5.0 mph 7.0 mph 31% 0.00 in
14:39 93.9 °F 54.9 °F 29.85 in NNE 3.0 mph 9.0 mph 27% 0.00 in
14:44 94.1 °F 57.0 °F 29.85 in NNE 5.0 mph 8.0 mph 29% 0.00 in
14:49 94.0 °F 56.9 °F 29.85 in NE 5.0 mph 10.0 mph 29% 0.00 in
14:54 93.8 °F 55.8 °F 29.85 in NW 2.0 mph 5.0 mph 28% 0.00 in
14:59 93.9 °F 56.8 °F 29.85 in NW 9.0 mph 9.0 mph 29% 0.00 in
15:04 94.0 °F 56.0 °F 29.85 in WNW 1.0 mph 7.0 mph 28% 0.00 in
15:09 94.5 °F 56.4 °F 29.84 in North 3.0 mph 5.0 mph 28% 0.00 in
15:14 94.7 °F 57.5 °F 29.84 in NW 2.0 mph 4.0 mph 29% 0.00 in
15:19 94.7 °F 58.5 °F 29.84 in WNW 1.0 mph 6.0 mph 30% 0.00 in
15:24 94.9 °F 58.7 °F 29.84 in NE 7.0 mph 9.0 mph 30% 0.00 in
15:29 94.5 °F 58.3 °F 29.84 in NE 1.0 mph 6.0 mph 30% 0.00 in
15:34 94.5 °F 56.4 °F 29.84 in ENE 3.0 mph 4.0 mph 28% 0.00 in
15:39 94.7 °F 55.6 °F 29.84 in NNE 5.0 mph 8.0 mph 27% 0.00 in
15:44 94.9 °F 59.6 °F 29.84 in North 3.0 mph 6.0 mph 31% 0.00 in
15:49 95.1 °F 57.9 °F 29.84 in NE 4.0 mph 5.0 mph 29% 0.00 in
15:54 95.2 °F 58.0 °F 29.84 in North 4.0 mph 8.0 mph 29% 0.00 in
15:59 95.1 °F 53.8 °F 29.83 in NNE 1.0 mph 6.0 mph 25% 0.00 in
16:04 95.5 °F 60.1 °F 29.83 in North 5.0 mph 5.0 mph 31% 0.00 in
16:10 95.6 °F 55.3 °F 29.83 in NNW 6.0 mph 9.0 mph 26% 0.00 in
16:15 95.8 °F 55.5 °F 29.83 in NNE 4.0 mph 6.0 mph 26% 0.00 in
16:20 96.0 °F 56.7 °F 29.83 in NNW 6.0 mph 7.0 mph 27% 0.00 in
16:25 96.1 °F 57.8 °F 29.83 in NE 3.0 mph 8.0 mph 28% 0.00 in
16:30 96.2 °F 59.8 °F 29.82 in NE 2.0 mph 6.0 mph 30% 0.00 in
16:35 96.4 °F 54.9 °F 29.82 in NW 2.0 mph 2.0 mph 25% 0.00 in
16:40 96.7 °F 56.2 °F 29.82 in North 5.0 mph 6.0 mph 26% 0.00 in
16:45 96.5 °F 56.0 °F 29.82 in NNW 6.0 mph 9.0 mph 26% 0.00 in
16:50 96.4 °F 59.0 °F 29.82 in ENE 2.0 mph 6.0 mph 29% 0.00 in
16:55 96.2 °F 57.8 °F 29.81 in NNE 3.0 mph 6.0 mph 28% 0.00 in
17:00 96.3 °F 56.9 °F 29.81 in East 1.0 mph 6.0 mph 27% 0.00 in
17:05 96.4 °F 57.0 °F 29.80 in NE 5.0 mph 5.0 mph 27% 0.00 in
17:10 96.2 °F 57.8 °F 29.80 in NNE 5.0 mph 6.0 mph 28% 0.00 in
17:15 96.5 °F 59.1 °F 29.80 in ENE 2.0 mph 4.0 mph 29% 0.00 in
17:20 96.4 °F 56.0 °F 29.80 in NE 8.0 mph 10.0 mph 26% 0.00 in
17:25 96.2 °F 55.8 °F 29.80 in NE 5.0 mph 8.0 mph 26% 0.00 in
17:30 96.3 °F 57.9 °F 29.79 in NE 3.0 mph 5.0 mph 28% 0.00 in
17:35 96.3 °F 54.8 °F 29.79 in NE 5.0 mph 5.0 mph 25% 0.00 in
17:40 96.4 °F 57.0 °F 29.79 in North 5.0 mph 6.0 mph 27% 0.00 in
17:45 96.2 °F 56.8 °F 29.78 in NNE 3.0 mph 8.0 mph 27% 0.00 in
17:50 96.1 °F 57.8 °F 29.78 in NNW 5.0 mph 8.0 mph 28% 0.00 in
17:55 96.2 °F 59.8 °F 29.78 in NNW 3.0 mph 8.0 mph 30% 0.00 in
18:00 96.1 °F 57.8 °F 29.78 in NW 2.0 mph 8.0 mph 28% 0.00 in
18:05 96.2 °F 58.8 °F 29.78 in NNE 3.0 mph 6.0 mph 29% 0.00 in
18:10 96.3 °F 62.5 °F 29.78 in NE 2.0 mph 6.0 mph 33% 0.00 in
18:15 96.1 °F 57.8 °F 29.78 in North 7.0 mph 8.0 mph 28% 0.00 in
18:20 95.9 °F 58.6 °F 29.78 in NNE 4.0 mph 9.0 mph 29% 0.00 in
18:25 96.0 °F 57.7 °F 29.78 in North 7.0 mph 8.0 mph 28% 0.00 in
18:30 95.7 °F 58.4 °F 29.78 in NNW 6.0 mph 8.0 mph 29% 0.00 in
18:35 95.7 °F 59.3 °F 29.78 in NW 8.0 mph 8.0 mph 30% 0.00 in
18:40 95.5 °F 59.2 °F 29.79 in North 2.0 mph 9.0 mph 30% 0.00 in
18:45 95.5 °F 57.2 °F 29.78 in NE 2.0 mph 9.0 mph 28% 0.00 in
18:50 95.5 °F 60.1 °F 29.78 in NNW 4.0 mph 4.0 mph 31% 0.00 in
18:55 95.2 °F 58.0 °F 29.78 in North 4.0 mph 11.0 mph 29% 0.00 in
19:00 95.1 °F 57.9 °F 29.78 in NNW 6.0 mph 9.0 mph 29% 0.00 in
19:05 95.0 °F 58.7 °F 29.78 in NNW 2.0 mph 6.0 mph 30% 0.00 in
19:10 94.9 °F 59.6 °F 29.78 in North 5.0 mph 6.0 mph 31% 0.00 in
19:15 94.7 °F 59.4 °F 29.78 in NNW 2.0 mph 7.0 mph 31% 0.00 in
19:20 94.6 °F 61.1 °F 29.78 in North 4.0 mph 5.0 mph 33% 0.00 in
19:25 94.5 °F 59.2 °F 29.78 in North 5.0 mph 6.0 mph 31% 0.00 in
19:30 94.1 °F 58.9 °F 29.78 in North 3.0 mph 6.0 mph 31% 0.00 in
19:36 94.0 °F 59.7 °F 29.78 in NW 4.0 mph 7.0 mph 32% 0.00 in
19:41 93.7 °F 60.3 °F 29.78 in NNW 4.0 mph 6.0 mph 33% 0.00 in
19:46 93.4 °F 59.2 °F 29.78 in NNW 3.0 mph 6.0 mph 32% 0.00 in
19:51 93.2 °F 59.0 °F 29.78 in North 5.0 mph 5.0 mph 32% 0.00 in
19:56 93.0 °F 59.7 °F 29.78 in NNE 4.0 mph 6.0 mph 33% 0.00 in
20:01 92.7 °F 59.4 °F 29.78 in NNW 4.0 mph 4.0 mph 33% 0.00 in
20:06 92.4 °F 59.2 °F 29.78 in North 3.0 mph 4.0 mph 33% 0.00 in
20:11 92.0 °F 58.8 °F 29.78 in NNW 2.0 mph 4.0 mph 33% 0.00 in
20:16 91.8 °F 58.6 °F 29.78 in North 3.0 mph 3.0 mph 33% 0.00 in
20:21 91.6 °F 58.5 °F 29.78 in NNW 2.0 mph 3.0 mph 33% 0.00 in
20:26 91.3 °F 59.0 °F 29.78 in NNW 3.0 mph 3.0 mph 34% 0.00 in
20:31 90.6 °F 58.4 °F 29.78 in North 2.0 mph 3.0 mph 34% 0.00 in
20:36 90.2 °F 58.9 °F 29.78 in North 2.0 mph 2.0 mph 35% 0.00 in
20:41 89.8 °F 58.5 °F 29.78 in North 2.0 mph 2.0 mph 35% 0.00 in
20:46 89.1 °F 58.7 °F 29.78 in Calm   2.0 mph 36% 0.00 in
20:51 88.6 °F 58.2 °F 29.78 in Calm   1.0 mph 36% 0.00 in
20:56 88.0 °F 59.2 °F 29.78 in North 2.0 mph 3.0 mph 38% 0.00 in
21:01 87.1 °F 58.4 °F 29.78 in North 2.0 mph 3.0 mph 38% 0.00 in
21:06 86.5 °F 58.6 °F 29.78 in NNW 2.0 mph 3.0 mph 39% 0.00 in
21:11 85.7 °F 59.3 °F 29.78 in NNW 2.0 mph 2.0 mph 41% 0.00 in
21:16 85.0 °F 58.0 °F 29.78 in NNW 3.0 mph 3.0 mph 40% 0.00 in
21:21 84.5 °F 58.9 °F 29.78 in NNW 2.0 mph 3.0 mph 42% 0.00 in
21:26 84.0 °F 58.5 °F 29.79 in North 3.0 mph 3.0 mph 42% 0.00 in
21:31 83.9 °F 58.4 °F 29.79 in NNW 2.0 mph 3.0 mph 42% 0.00 in
21:36 83.8 °F 58.9 °F 29.79 in NNW 2.0 mph 3.0 mph 43% 0.00 in
21:41 83.7 °F 58.8 °F 29.79 in North 2.0 mph 3.0 mph 43% 0.00 in
21:46 83.5 °F 58.7 °F 29.79 in NNE 2.0 mph 3.0 mph 43% 0.00 in
21:51 83.3 °F 58.5 °F 29.79 in NNW 2.0 mph 3.0 mph 43% 0.00 in
21:56 83.0 °F 58.2 °F 29.79 in NNW 2.0 mph 3.0 mph 43% 0.00 in
22:01 83.0 °F 58.9 °F 29.79 in NNE 2.0 mph 4.0 mph 44% 0.00 in
22:06 82.9 °F 58.8 °F 29.79 in North 3.0 mph 4.0 mph 44% 0.00 in
22:11 82.6 °F 58.5 °F 29.79 in ENE 1.0 mph 2.0 mph 44% 0.00 in
22:16 82.6 °F 58.5 °F 29.79 in NNE 2.0 mph 2.0 mph 44% 0.00 in
22:21 82.7 °F 58.6 °F 29.79 in NNE 1.0 mph 2.0 mph 44% 0.00 in
22:26 82.6 °F 58.5 °F 29.79 in NNE 1.0 mph 2.0 mph 44% 0.00 in
22:31 82.3 °F 58.2 °F 29.80 in NNE 1.0 mph 2.0 mph 44% 0.00 in
22:36 82.1 °F 58.0 °F 29.80 in North 2.0 mph 3.0 mph 44% 0.00 in
22:41 81.9 °F 58.5 °F 29.80 in North 1.0 mph 3.0 mph 45% 0.00 in
22:46 81.7 °F 58.3 °F 29.80 in NNE 2.0 mph 2.0 mph 45% 0.00 in
22:51 81.6 °F 58.2 °F 29.80 in NNE 1.0 mph 2.0 mph 45% 0.00 in
22:56 81.4 °F 58.0 °F 29.80 in Calm   2.0 mph 45% 0.00 in
23:01 81.2 °F 58.5 °F 29.80 in NNE 1.0 mph 2.0 mph 46% 0.00 in
23:06 81.0 °F 58.3 °F 29.80 in NNE 2.0 mph 3.0 mph 46% 0.00 in
23:11 80.9 °F 58.2 °F 29.80 in North 1.0 mph 2.0 mph 46% 0.00 in
23:17 80.7 °F 58.0 °F 29.80 in North 2.0 mph 3.0 mph 46% 0.00 in
23:22 80.5 °F 57.8 °F 29.80 in NNW 2.0 mph 3.0 mph 46% 0.00 in
23:27 80.4 °F 58.3 °F 29.80 in North 2.0 mph 3.0 mph 47% 0.00 in
23:32 80.2 °F 58.2 °F 29.80 in NNE 2.0 mph 3.0 mph 47% 0.00 in
23:37 80.1 °F 58.1 °F 29.80 in NNE 2.0 mph 2.0 mph 47% 0.00 in
23:42 79.9 °F 58.5 °F 29.80 in NNE 1.0 mph 2.0 mph 48% 0.00 in
23:47 79.6 °F 58.2 °F 29.80 in North 1.0 mph 2.0 mph 48% 0.00 in
23:52 79.3 °F 58.5 °F 29.80 in NNW 1.0 mph 1.0 mph 49% 0.00 in
23:57 79.1 °F 58.3 °F 29.80 in North 1.0 mph 3.0 mph 49% 0.00 in
Compliments of Weather Underground